Cosmos 1072 Rocket - Orbit

View from above orbital plane
View from above orbital plane
View from above satellite
View from above satellite

Ground track
Ground track

The orbit data is extracted from the following two-line orbital elements,

1 11239U 79003B   13142.54308625  .00000008  00000-0 -76539-5 0  1467
2 11239 082.9377 111.9516 0039996 223.3750 275.0390 13.75676686723447
Epoch (UTC): 22 May 2013 13:02:02
Eccentricity: 0.0039996
inclination: 82.9377°
perigee height: 950 km
apogee height: 1008 km
right ascension of ascending node: 111.9516°
argument of perigee: 223.3750°
revolutions per day: 13.75676686
mean anomaly at epoch: 275.0390°
orbit number at epoch: 72344

The dashed part of the orbit path shows where the satellite is in the earth's shadow,  

Developed and maintained by Chris Peat, Heavens-Above GmbH. Please read the updated FAQ before sending e-mail. Imprint. DLR